Time,TemperatureF,DewpointF,PressureIn,WindDirection,WindDirectionDegrees,WindSpeedMPH,WindSpeedGustMPH,Humidity,HourlyPrecipIn,Conditions,Clouds,dailyrainin,SoftwareType,DateUTC
2013-02-17 00:02:00,29.0,15.0,-100.00,SSE,165,4.0,6.0,55,0.00,,,-99.99,,2013-02-17 06:02:00,
2013-02-17 00:11:00,29.0,16.0,-100.00,SSE,165,4.0,7.0,55,0.00,,,-99.99,,2013-02-17 06:11:00,
2013-02-17 00:21:00,29.0,16.0,-100.00,South,170,4.0,7.0,55,0.00,,,-99.99,,2013-02-17 06:21:00,
2013-02-17 00:31:00,30.0,15.0,-100.00,SSE,165,6.0,9.0,54,0.00,,,-99.99,,2013-02-17 06:31:00,
2013-02-17 00:41:00,30.0,15.0,-100.00,SSE,165,6.0,9.0,54,0.00,,,-99.99,,2013-02-17 06:41:00,
2013-02-17 00:51:00,30.0,15.0,-100.00,SSE,150,6.0,11.0,54,0.00,,,-99.99,,2013-02-17 06:51:00,
2013-02-17 01:01:00,30.0,15.0,-100.00,SSE,150,6.0,11.0,54,0.00,,,-99.99,,2013-02-17 07:01:00,
2013-02-17 01:11:00,30.0,15.0,-100.00,SE,145,6.0,11.0,54,0.00,,,-99.99,,2013-02-17 07:11:00,
2013-02-17 01:21:00,30.0,16.0,-100.00,SSE,150,7.0,10.0,55,0.00,,,-99.99,,2013-02-17 07:21:00,
2013-02-17 01:31:00,30.0,16.0,-100.00,SE,145,6.0,9.0,55,0.00,,,-99.99,,2013-02-17 07:31:00,
2013-02-17 01:41:00,30.0,16.0,-100.00,SE,135,6.0,10.0,56,0.00,,,-99.99,,2013-02-17 07:41:00,
2013-02-17 01:51:00,30.0,16.0,-100.00,SSE,155,5.0,9.0,56,0.00,,,-99.99,,2013-02-17 07:51:00,
2013-02-17 02:01:00,30.0,16.0,-100.00,SSE,155,5.0,9.0,56,0.00,,,-99.99,,2013-02-17 08:01:00,
2013-02-17 02:11:00,30.0,16.0,-100.00,SE,140,6.0,9.0,57,0.00,,,-99.99,,2013-02-17 08:11:00,
2013-02-17 02:21:00,30.0,17.0,-100.00,SE,145,6.0,9.0,57,0.00,,,-99.99,,2013-02-17 08:21:00,
2013-02-17 02:31:00,30.0,17.0,-100.00,SSE,150,7.0,9.0,57,0.00,,,-99.99,,2013-02-17 08:31:00,
2013-02-17 02:42:00,30.0,17.0,-100.00,SE,145,6.0,10.0,59,0.00,,,-99.99,,2013-02-17 08:42:00,
2013-02-17 02:52:00,30.0,17.0,-100.00,SE,145,7.0,9.0,59,0.00,,,-99.99,,2013-02-17 08:52:00,
2013-02-17 03:01:00,30.0,17.0,-100.00,SE,145,7.0,9.0,59,0.00,,,-99.99,,2013-02-17 09:01:00,
2013-02-17 03:11:00,30.0,18.0,-100.00,SE,145,4.0,10.0,59,0.00,,,-99.99,,2013-02-17 09:11:00,
2013-02-17 03:21:00,30.0,18.0,-100.00,SE,130,5.0,7.0,60,0.00,,,-99.99,,2013-02-17 09:21:00,
2013-02-17 03:31:00,29.0,18.0,-100.00,SE,130,6.0,7.0,60,0.00,,,-99.99,,2013-02-17 09:31:00,
2013-02-17 03:41:00,29.0,18.0,-100.00,SE,135,4.0,7.0,61,0.00,,,-99.99,,2013-02-17 09:41:00,
2013-02-17 03:51:00,29.0,18.0,-100.00,SSE,155,6.0,9.0,61,0.00,,,-99.99,,2013-02-17 09:51:00,
2013-02-17 04:01:00,29.0,18.0,-100.00,SSE,155,6.0,9.0,61,0.00,,,-99.99,,2013-02-17 10:01:00,
2013-02-17 04:11:00,29.0,18.0,-100.00,SE,135,6.0,9.0,62,0.00,,,-99.99,,2013-02-17 10:11:00,
2013-02-17 04:21:00,29.0,18.0,-100.00,SE,130,6.0,9.0,63,0.00,,,-99.99,,2013-02-17 10:21:00,
2013-02-17 04:31:00,28.0,18.0,-100.00,SE,130,6.0,7.0,64,0.00,,,-99.99,,2013-02-17 10:31:00,
2013-02-17 04:41:00,27.0,17.0,-100.00,SE,130,6.0,7.0,66,0.00,,,-99.99,,2013-02-17 10:41:00,
2013-02-17 04:51:00,27.0,18.0,-100.00,SE,130,7.0,9.0,68,0.00,,,-99.99,,2013-02-17 10:51:00,
2013-02-17 05:01:00,27.0,18.0,-100.00,SE,130,7.0,9.0,68,0.00,,,-99.99,,2013-02-17 11:01:00,
2013-02-17 05:11:00,26.0,18.0,-100.00,SE,140,6.0,9.0,70,0.00,,,-99.99,,2013-02-17 11:11:00,
2013-02-17 05:21:00,26.0,18.0,-100.00,SE,135,6.0,9.0,70,0.00,,,-99.99,,2013-02-17 11:21:00,
2013-02-17 05:32:00,26.0,18.0,-100.00,SE,135,7.0,7.0,71,0.00,,,-99.99,,2013-02-17 11:32:00,
2013-02-17 05:41:00,26.0,18.0,-100.00,SE,135,6.0,9.0,72,0.00,,,-99.99,,2013-02-17 11:41:00,
2013-02-17 05:52:00,26.0,19.0,-100.00,SE,140,6.0,9.0,73,0.00,,,-99.99,,2013-02-17 11:52:00,
2013-02-17 06:03:00,26.0,19.0,-100.00,SE,140,6.0,9.0,73,0.00,,,-99.99,,2013-02-17 12:03:00,
2013-02-17 06:11:00,26.0,19.0,-100.00,SE,140,7.0,9.0,74,0.00,,,-99.99,,2013-02-17 12:11:00,
2013-02-17 06:22:00,26.0,19.0,-100.00,SE,140,7.0,10.0,74,0.00,,,-99.99,,2013-02-17 12:22:00,
2013-02-17 06:32:00,26.0,19.0,-100.00,SE,140,6.0,9.0,75,0.00,,,-99.99,,2013-02-17 12:32:00,
2013-02-17 06:42:00,26.0,20.0,-100.00,SE,140,7.0,10.0,75,0.00,,,-99.99,,2013-02-17 12:42:00,
2013-02-17 06:52:00,26.0,19.0,-100.00,SE,140,7.0,10.0,75,0.00,,,-99.99,,2013-02-17 12:52:00,
2013-02-17 07:02:00,26.0,19.0,-100.00,SE,140,7.0,10.0,75,0.00,,,-99.99,,2013-02-17 13:02:00,
2013-02-17 07:12:00,26.0,20.0,-100.00,SSE,150,8.0,12.0,76,0.00,,,-99.99,,2013-02-17 13:12:00,
2013-02-17 07:21:00,26.0,20.0,-100.00,SSE,150,8.0,12.0,76,0.00,,,-99.99,,2013-02-17 13:21:00,
2013-02-17 07:32:00,26.0,20.0,-100.00,SE,145,10.0,12.0,76,0.00,,,-99.99,,2013-02-17 13:32:00,
2013-02-17 07:41:00,26.0,20.0,-100.00,SE,145,9.0,13.0,76,0.00,,,-99.99,,2013-02-17 13:41:00,
2013-02-17 07:51:00,27.0,20.0,-100.00,SE,140,7.0,12.0,76,0.00,,,-99.99,,2013-02-17 13:51:00,
2013-02-17 08:01:00,27.0,20.0,-100.00,SE,140,7.0,12.0,76,0.00,,,-99.99,,2013-02-17 14:01:00,
2013-02-17 08:11:00,28.0,21.0,-100.00,SSE,155,10.0,14.0,74,0.00,,,-99.99,,2013-02-17 14:11:00,
2013-02-17 08:21:00,29.0,21.0,-100.00,SSE,160,8.0,13.0,73,0.00,,,-99.99,,2013-02-17 14:21:00,
2013-02-17 08:32:00,29.0,21.0,-100.00,SSE,155,7.0,12.0,70,0.00,,,-99.99,,2013-02-17 14:32:00,
2013-02-17 08:42:00,31.0,21.0,-100.00,SE,135,7.0,15.0,67,0.00,,,-99.99,,2013-02-17 14:42:00,
2013-02-17 08:52:00,32.0,21.0,-100.00,SSE,160,12.0,17.0,62,0.00,,,-99.99,,2013-02-17 14:52:00,
2013-02-17 09:02:00,32.0,21.0,-100.00,SSE,160,12.0,17.0,62,0.00,,,-99.99,,2013-02-17 15:02:00,
2013-02-17 09:11:00,33.0,20.0,-100.00,SSE,160,11.0,15.0,59,0.00,,,-99.99,,2013-02-17 15:11:00,
2013-02-17 09:21:00,34.0,21.0,-100.00,SSE,150,9.0,16.0,57,0.00,,,-99.99,,2013-02-17 15:21:00,
2013-02-17 09:32:00,35.0,20.0,-100.00,SSE,160,9.0,14.0,55,0.00,,,-99.99,,2013-02-17 15:32:00,
2013-02-17 09:41:00,36.0,20.0,-100.00,SSE,165,12.0,16.0,52,0.00,,,-99.99,,2013-02-17 15:41:00,
2013-02-17 09:52:00,36.0,20.0,-100.00,SSE,165,11.0,17.0,51,0.00,,,-99.99,,2013-02-17 15:52:00,
2013-02-17 10:01:00,36.0,20.0,-100.00,SSE,165,11.0,17.0,51,0.00,,,-99.99,,2013-02-17 16:01:00,
2013-02-17 10:11:00,38.0,20.0,-100.00,South,175,7.0,16.0,48,0.00,,,-99.99,,2013-02-17 16:11:00,
2013-02-17 10:21:00,39.0,20.0,-100.00,SE,145,12.0,19.0,46,0.00,,,-99.99,,2013-02-17 16:21:00,
2013-02-17 10:32:00,39.0,20.0,-100.00,South,170,11.0,19.0,45,0.00,,,-99.99,,2013-02-17 16:32:00,
2013-02-17 10:41:00,39.0,19.0,-100.00,South,170,12.0,17.0,44,0.00,,,-99.99,,2013-02-17 16:41:00,
2013-02-17 10:51:00,41.0,20.0,-100.00,South,170,10.0,16.0,42,0.00,,,-99.99,,2013-02-17 16:51:00,
2013-02-17 11:02:00,41.0,20.0,-100.00,South,170,10.0,16.0,42,0.00,,,-99.99,,2013-02-17 17:02:00,
2013-02-17 11:11:00,41.0,19.0,-100.00,SSE,165,10.0,17.0,41,0.00,,,-99.99,,2013-02-17 17:11:00,
2013-02-17 11:21:00,42.0,19.0,-100.00,SSE,150,11.0,17.0,39,0.00,,,-99.99,,2013-02-17 17:21:00,
2013-02-17 11:32:00,43.0,20.0,-100.00,SE,145,11.0,17.0,38,0.00,,,-99.99,,2013-02-17 17:32:00,
2013-02-17 11:41:00,44.0,20.0,-100.00,SE,145,12.0,17.0,37,0.00,,,-99.99,,2013-02-17 17:41:00,
2013-02-17 11:52:00,44.0,20.0,-100.00,SE,135,12.0,19.0,37,0.00,,,-99.99,,2013-02-17 17:52:00,
2013-02-17 12:02:00,44.0,20.0,-100.00,SE,135,12.0,19.0,37,0.00,,,-99.99,,2013-02-17 18:02:00,
2013-02-17 12:11:00,45.0,20.0,-100.00,SE,140,12.0,18.0,36,0.00,,,-99.99,,2013-02-17 18:11:00,
2013-02-17 12:22:00,45.0,20.0,-100.00,SSE,160,14.0,21.0,35,0.00,,,-99.99,,2013-02-17 18:22:00,
2013-02-17 12:33:00,46.0,20.0,-100.00,SSE,155,14.0,19.0,35,0.00,,,-99.99,,2013-02-17 18:33:00,
2013-02-17 12:42:00,47.0,20.0,-100.00,SSE,165,13.0,20.0,34,0.00,,,-99.99,,2013-02-17 18:42:00,
2013-02-17 12:52:00,47.0,20.0,-100.00,SE,135,13.0,20.0,34,0.00,,,-99.99,,2013-02-17 18:52:00,
2013-02-17 13:01:00,47.0,20.0,-100.00,SE,135,13.0,20.0,34,0.00,,,-99.99,,2013-02-17 19:01:00,
2013-02-17 13:11:00,49.0,22.0,-100.00,SSW,195,7.0,18.0,34,0.00,,,-99.99,,2013-02-17 19:11:00,
2013-02-17 13:21:00,50.0,22.0,-100.00,SSE,150,9.0,17.0,32,0.00,,,-99.99,,2013-02-17 19:21:00,
2013-02-17 13:32:00,49.0,21.0,-100.00,SSE,155,11.0,22.0,32,0.00,,,-99.99,,2013-02-17 19:32:00,
2013-02-17 13:41:00,49.0,22.0,-100.00,SSE,150,11.0,24.0,32,0.00,,,-99.99,,2013-02-17 19:41:00,
2013-02-17 13:51:00,50.0,22.0,-100.00,South,175,11.0,26.0,33,0.00,,,-99.99,,2013-02-17 19:51:00,
2013-02-17 14:02:00,50.0,22.0,-100.00,South,175,11.0,26.0,33,0.00,,,-99.99,,2013-02-17 20:02:00,
2013-02-17 14:11:00,50.0,22.0,-100.00,SSE,160,14.0,21.0,32,0.00,,,-99.99,,2013-02-17 20:11:00,
2013-02-17 14:21:00,50.0,22.0,-100.00,SSE,165,14.0,22.0,32,0.00,,,-99.99,,2013-02-17 20:21:00,
2013-02-17 14:32:00,51.0,23.0,-100.00,SSE,155,13.0,24.0,33,0.00,,,-99.99,,2013-02-17 20:32:00,
2013-02-17 14:42:00,50.0,22.0,-100.00,SSE,165,15.0,23.0,33,0.00,,,-99.99,,2013-02-17 20:42:00,
2013-02-17 14:52:00,51.0,23.0,-100.00,South,170,15.0,22.0,33,0.00,,,-99.99,,2013-02-17 20:52:00,
2013-02-17 15:01:00,51.0,23.0,-100.00,South,170,15.0,22.0,33,0.00,,,-99.99,,2013-02-17 21:01:00,
2013-02-17 15:11:00,51.0,24.0,-100.00,SSE,160,11.0,21.0,33,0.00,,,-99.99,,2013-02-17 21:11:00,
2013-02-17 15:21:00,51.0,23.0,-100.00,SSE,160,13.0,22.0,34,0.00,,,-99.99,,2013-02-17 21:21:00,
2013-02-17 15:32:00,50.0,23.0,-100.00,SSE,160,17.0,23.0,34,0.00,,,-99.99,,2013-02-17 21:32:00,
2013-02-17 15:41:00,51.0,24.0,-100.00,SSE,155,14.0,21.0,34,0.00,,,-99.99,,2013-02-17 21:41:00,
2013-02-17 15:52:00,50.0,24.0,-100.00,SE,145,19.0,24.0,34,0.00,,,-99.99,,2013-02-17 21:52:00,
2013-02-17 16:01:00,50.0,24.0,-100.00,SE,145,19.0,24.0,34,0.00,,,-99.99,,2013-02-17 22:01:00,
2013-02-17 16:12:00,51.0,24.0,-100.00,SSE,150,14.0,21.0,34,0.00,,,-99.99,,2013-02-17 22:12:00,
2013-02-17 16:21:00,51.0,24.0,-100.00,SSE,155,16.0,23.0,34,0.00,,,-99.99,,2013-02-17 22:21:00,
2013-02-17 16:32:00,49.0,23.0,-100.00,SSE,160,16.0,23.0,36,0.00,,,-99.99,,2013-02-17 22:32:00,
2013-02-17 16:41:00,48.0,23.0,-100.00,SSE,155,12.0,21.0,37,0.00,,,-99.99,,2013-02-17 22:41:00,
2013-02-17 16:52:00,48.0,23.0,-100.00,SSE,155,15.0,24.0,37,0.00,,,-99.99,,2013-02-17 22:52:00,
2013-02-17 17:02:00,48.0,23.0,-100.00,SSE,155,15.0,24.0,37,0.00,,,-99.99,,2013-02-17 23:02:00,
2013-02-17 17:11:00,49.0,24.0,-100.00,SSE,155,11.0,23.0,37,0.00,,,-99.99,,2013-02-17 23:11:00,
2013-02-17 17:21:00,49.0,24.0,-100.00,SSE,160,12.0,21.0,37,0.00,,,-99.99,,2013-02-17 23:21:00,
2013-02-17 17:32:00,48.0,24.0,-100.00,SSE,165,12.0,21.0,37,0.00,,,-99.99,,2013-02-17 23:32:00,
2013-02-17 17:42:00,47.0,23.0,-100.00,SE,145,13.0,19.0,38,0.00,,,-99.99,,2013-02-17 23:42:00,
2013-02-17 17:52:00,46.0,23.0,-100.00,SSE,150,13.0,18.0,40,0.00,,,-99.99,,2013-02-17 23:52:00,
2013-02-17 18:01:00,46.0,23.0,-100.00,SSE,150,13.0,18.0,40,0.00,,,-99.99,,2013-02-18 00:01:00,
2013-02-17 18:11:00,45.0,23.0,-100.00,SE,145,12.0,17.0,41,0.00,,,-99.99,,2013-02-18 00:11:00,
2013-02-17 18:22:00,44.0,23.0,-100.00,SSE,150,11.0,16.0,42,0.00,,,-99.99,,2013-02-18 00:22:00,
2013-02-17 18:32:00,44.0,23.0,-100.00,SE,140,11.0,16.0,43,0.00,,,-99.99,,2013-02-18 00:32:00,
2013-02-17 18:41:00,44.0,24.0,-100.00,SSE,150,12.0,17.0,44,0.00,,,-99.99,,2013-02-18 00:41:00,
2013-02-17 18:52:00,43.0,24.0,-100.00,SSE,150,14.0,20.0,45,0.00,,,-99.99,,2013-02-18 00:52:00,
2013-02-17 19:01:00,43.0,24.0,-100.00,SSE,150,14.0,20.0,45,0.00,,,-99.99,,2013-02-18 01:01:00,
2013-02-17 19:11:00,43.0,24.0,-100.00,SE,145,13.0,20.0,45,0.00,,,-99.99,,2013-02-18 01:11:00,
2013-02-17 19:21:00,44.0,24.0,-100.00,SE,145,14.0,21.0,45,0.00,,,-99.99,,2013-02-18 01:21:00,
2013-02-17 19:31:00,43.0,24.0,-100.00,SE,140,11.0,17.0,45,0.00,,,-99.99,,2013-02-18 01:31:00,
2013-02-17 19:41:00,43.0,24.0,-100.00,SE,140,14.0,20.0,45,0.00,,,-99.99,,2013-02-18 01:41:00,
2013-02-17 19:51:00,43.0,24.0,-100.00,SE,140,15.0,21.0,45,0.00,,,-99.99,,2013-02-18 01:51:00,
2013-02-17 20:01:00,43.0,24.0,-100.00,SE,140,15.0,21.0,45,0.00,,,-99.99,,2013-02-18 02:01:00,
2013-02-17 20:11:00,43.0,24.0,-100.00,SE,145,14.0,19.0,46,0.00,,,-99.99,,2013-02-18 02:11:00,
2013-02-17 20:21:00,43.0,24.0,-100.00,SE,140,16.0,21.0,46,0.00,,,-99.99,,2013-02-18 02:21:00,
2013-02-17 20:32:00,42.0,24.0,-100.00,SE,145,14.0,19.0,47,0.00,,,-99.99,,2013-02-18 02:32:00,
2013-02-17 20:41:00,42.0,24.0,-100.00,SE,145,16.0,22.0,47,0.00,,,-99.99,,2013-02-18 02:41:00,
2013-02-17 20:52:00,41.0,23.0,-100.00,SSE,155,13.0,21.0,48,0.00,,,-99.99,,2013-02-18 02:52:00,
2013-02-17 21:01:00,41.0,23.0,-100.00,SSE,155,13.0,21.0,48,0.00,,,-99.99,,2013-02-18 03:01:00,
2013-02-17 21:11:00,41.0,23.0,-100.00,SE,145,12.0,20.0,48,0.00,,,-99.99,,2013-02-18 03:11:00,
2013-02-17 21:21:00,41.0,23.0,-100.00,SSE,155,12.0,20.0,48,0.00,,,-99.99,,2013-02-18 03:21:00,
2013-02-17 21:31:00,41.0,23.0,-100.00,SSE,150,12.0,17.0,48,0.00,,,-99.99,,2013-02-18 03:31:00,
2013-02-17 21:42:00,40.0,23.0,-100.00,SE,145,12.0,17.0,49,0.00,,,-99.99,,2013-02-18 03:42:00,
2013-02-17 21:51:00,41.0,23.0,-100.00,SSE,155,12.0,19.0,49,0.00,,,-99.99,,2013-02-18 03:51:00,
2013-02-17 22:01:00,41.0,23.0,-100.00,SSE,155,12.0,19.0,49,0.00,,,-99.99,,2013-02-18 04:01:00,
2013-02-17 22:11:00,40.0,23.0,-100.00,SE,145,11.0,17.0,49,0.00,,,-99.99,,2013-02-18 04:11:00,
2013-02-17 22:21:00,41.0,23.0,-100.00,SE,145,13.0,19.0,49,0.00,,,-99.99,,2013-02-18 04:21:00,
2013-02-17 22:32:00,40.0,23.0,-100.00,SE,145,12.0,17.0,50,0.00,,,-99.99,,2013-02-18 04:32:00,
2013-02-17 22:41:00,40.0,23.0,-100.00,SE,145,12.0,17.0,50,0.00,,,-99.99,,2013-02-18 04:41:00,
2013-02-17 22:51:00,40.0,24.0,-100.00,SE,145,12.0,17.0,51,0.00,,,-99.99,,2013-02-18 04:51:00,
2013-02-17 23:02:00,40.0,24.0,-100.00,SE,145,12.0,17.0,51,0.00,,,-99.99,,2013-02-18 05:02:00,
2013-02-17 23:11:00,40.0,24.0,-100.00,SSE,150,14.0,18.0,51,0.00,,,-99.99,,2013-02-18 05:11:00,
2013-02-17 23:21:00,41.0,24.0,-100.00,SSE,150,14.0,19.0,51,0.00,,,-99.99,,2013-02-18 05:21:00,
2013-02-17 23:31:00,41.0,24.0,-100.00,SSE,155,14.0,19.0,51,0.00,,,-99.99,,2013-02-18 05:31:00,
2013-02-17 23:41:00,41.0,24.0,-100.00,SSE,155,12.0,21.0,50,0.00,,,-99.99,,2013-02-18 05:41:00,
2013-02-17 23:52:00,42.0,25.0,-100.00,SSE,155,12.0,21.0,49,0.00,,,-99.99,,2013-02-18 05:52:00,